[[{"header":{"parameterUnit":"m.s-1","parameterCategory":1,"la1":30.2991,"la2":30.254,"lo1":-89.0895,"lo2":-89.0444,"dy":0.0017,"dx":0.0017,"nx":28,"ny":28,"refTime":"2024-03-17T09:00:00:Z","depth":0,"parameterNumber":2,"parameterNumberName":"U-component_of_WINDS"},"data":[0,0,0,0,0,0,0,0,0,0,0,0,0,0,0,0,0,0,0,0,0,0,0,0,0,0,0,0,0,0,0,0,0,0,0,0,0,0,0,0,0,0,0,0,0,0,0,0,0,0,0,0,0,0,0,0,0,0,-0.4229,-0.4229,0,-0.4283,-0.4283,-0.4284,-0.4275,-0.4274,-0.4273,-0.4272,-0.4328,-0.433,-0.4333,0,0,0,0,0,0,0,0,0,0,0,0,0,-0.4117,-0.4119,-0.4229,-0.4229,-0.423,-0.4283,-0.4283,-0.4284,-0.4275,-0.4274,-0.4272,-0.4271,-0.4327,-0.433,-0.4333,0,0,0,0,0,0,0,0,0,0,0,0,0,-0.4168,-0.4119,-0.4228,-0.4232,-0.4232,-0.4283,-0.4283,-0.4284,-0.4275,-0.4274,-0.4272,-0.4271,-0.4326,-0.433,-0.4333,-0.4384,0,0,-0.4344,-0.4346,0,0,0,0,0,0,0,0,-0.4165,-0.4172,-0.423,-0.4231,-0.4232,-0.427,-0.4265,-0.4318,-0.4275,-0.4259,-0.4272,-0.427,-0.431,-0.4315,-0.4328,-0.4387,-0.4389,-0.4345,-0.4347,-0.4348,-0.4349,0,0,0,0,0,0,0,-0.4161,-0.4169,-0.425,-0.4231,-0.4233,-0.423,-0.4236,-0.4275,-0.4292,-0.426,-0.426,-0.4266,-0.431,-0.4325,-0.433,-0.439,-0.4345,-0.4348,-0.435,-0.4351,-0.4492,-0.4494,0,0,0,0,0,0,-0.4157,-0.4166,-0.4248,-0.4252,-0.4194,-0.4233,-0.424,-0.426,-0.4291,-0.4295,-0.4267,-0.4265,-0.4319,-0.4325,-0.4332,-0.4393,-0.4348,-0.4352,-0.4354,-0.4491,-0.4492,-0.4494,0,0,0,0,0,0,-0.4154,-0.4164,-0.4246,-0.4209,-0.4219,-0.4237,-0.4259,-0.4262,-0.4276,-0.4297,-0.43,-0.4279,-0.4319,-0.4326,-0.4371,-0.4395,-0.4353,-0.4357,-0.4489,-0.4491,-0.4493,-0.4517,0,0,0,0,0,0,-0.4151,-0.4163,-0.4183,-0.4209,-0.4221,-0.4285,-0.4261,-0.4264,-0.4282,-0.428,-0.4309,-0.4312,-0.4318,-0.4366,-0.4375,-0.4399,-0.4359,-0.4487,-0.449,-0.4493,-0.4514,-0.4519,-0.4524,0,0,0,0,0,-0.4147,-0.4188,-0.4184,-0.4194,-0.4246,-0.4286,-0.4293,-0.4299,-0.4284,-0.4304,-0.4317,-0.4311,-0.439,-0.437,-0.438,-0.4406,-0.4485,-0.4489,-0.4492,-0.4511,-0.4518,-0.4524,0,0,0,0,0,0,-0.4164,-0.4191,-0.4188,-0.4238,-0.426,-0.4285,-0.431,-0.4306,-0.4333,-0.4331,-0.4337,-0.4343,-0.4389,-0.4402,-0.4379,-0.4456,-0.4436,-0.4441,-0.4447,-0.4453,-0.4459,-0.4455,-0.4362,0,0,0,0,0,-0.4174,-0.4204,-0.4226,-0.4268,-0.4279,-0.4293,-0.4311,-0.4313,-0.4336,-0.4346,-0.4362,-0.4385,-0.4415,-0.4435,-0.4463,-0.4515,-0.4521,-0.4537,-0.4543,-0.4547,-0.4552,-0.458,-0.4588,-0.4506,-0.4506,-0.4506,0,0,-0.4194,-0.4213,-0.4232,-0.4272,-0.429,-0.4321,-0.4301,-0.4335,-0.4358,-0.4351,-0.4394,-0.4407,-0.4432,-0.448,-0.4502,-0.4493,-0.4576,-0.4551,-0.4555,-0.4558,-0.4584,-0.4592,-0.4599,-0.4508,-0.4508,-0.4508,0,0,-0.4248,-0.4264,-0.4301,-0.4319,-0.4345,-0.4353,-0.4362,-0.4387,-0.4395,-0.4438,-0.4433,-0.446,-0.4512,-0.453,-0.4547,-0.4605,-0.46,-0.4614,-0.4642,-0.4669,-0.4675,-0.4681,-0.4702,-0.4709,-0.4618,-0.4619,-0.4619,0,-0.427,-0.4317,-0.4321,-0.4355,-0.4373,-0.4367,-0.4404,-0.4421,-0.4455,-0.4468,-0.4456,-0.452,-0.4537,-0.4589,-0.4603,-0.4616,-0.4626,-0.4611,-0.4674,-0.468,-0.4685,-0.4705,-0.4713,-0.462,-0.462,-0.462,-0.462,0,-0.4343,-0.4375,-0.4402,-0.4435,-0.4455,-0.4491,-0.45,-0.4521,-0.4521,-0.453,-0.4573,-0.4593,-0.4625,-0.4638,-0.4638,-0.469,-0.4683,-0.4672,-0.4652,-0.4694,-0.4713,-0.4721,-0.4622,-0.4622,-0.4621,-0.4621,0,0,-0.4411,-0.4444,-0.4454,-0.4468,-0.4496,-0.4521,-0.4555,-0.4587,-0.4604,-0.4627,-0.4657,-0.4699,-0.4689,-0.4708,-0.471,-0.4733,-0.4778,-0.472,-0.4721,-0.4731,-0.4836,-0.4844,-0.4853,-0.4774,-0.4776,-0.4777,-0.4834,0,-0.4467,-0.4529,-0.4533,-0.4589,-0.4619,-0.4612,-0.4642,-0.4662,-0.4671,-0.4698,-0.4707,-0.4738,-0.4722,-0.4733,-0.4756,-0.4768,-0.4799,-0.4764,-0.4802,-0.4804,-0.4797,-0.4863,-0.4872,-0.4925,-0.4841,-0.4842,-0.4843,0,-0.4542,-0.4567,-0.4626,-0.4648,-0.466,-0.4688,-0.4716,-0.4741,-0.4763,-0.4768,-0.4787,-0.4786,-0.4821,-0.4798,-0.4847,-0.4822,-0.4838,-0.4846,-0.4848,-0.4853,-0.4827,-0.487,-0.4942,-0.495,-0.4855,-0.4854,-0.4853,0,-0.4586,-0.4634,-0.4675,-0.4688,-0.4715,-0.4734,-0.4746,-0.4766,-0.4784,-0.4809,-0.4821,-0.4849,-0.4864,-0.4886,-0.4892,-0.4875,-0.494,-0.4918,-0.4946,-0.4946,-0.4961,-0.4961,-0.5037,-0.497,-0.4969,-0.4969,-0.4969,0,-0.465,-0.4686,-0.4696,-0.4721,-0.4761,-0.4765,-0.4804,-0.4815,-0.4833,-0.486,-0.4856,-0.4881,-0.4887,-0.4914,-0.4918,-0.4958,-0.4965,-0.497,-0.4971,-0.4971,-0.497,-0.4982,-0.4979,-0.4971,-0.4971,-0.497,-0.497,0,-0.4707,-0.4715,-0.4759,-0.478,-0.4786,-0.4815,-0.4833,-0.4857,-0.4865,-0.4899,-0.4908,-0.492,-0.4951,-0.4958,-0.4995,-0.4998,-0.5045,-0.5042,-0.5038,-0.5038,-0.5066,-0.5063,-0.5154,-0.5166,-0.5089,-0.509,-0.509,0,-0.4748,-0.4775,-0.4799,-0.4817,-0.4829,-0.4858,-0.4876,-0.488,-0.4899,-0.4925,-0.4946,-0.4976,-0.5001,-0.505,-0.5062,-0.509,-0.5088,-0.5118,-0.5093,-0.5091,-0.5089,-0.5088,-0.5091,-0.5123,-0.5124,-0.5125,-0.5125,0,-0.4819,-0.4821,-0.4847,-0.4875,-0.4896,-0.4918,-0.4939,-0.4953,-0.496,-0.4981,-0.5012,-0.5031,-0.5068,-0.5098,-0.5126,-0.5138,-0.5133,-0.5133,-0.5141,-0.5142,-0.5139,-0.5141,-0.5052,-0.5131,-0.5131,-0.513,-0.513,-0.513,-0.487,-0.4894,-0.4914,-0.4943,-0.4959,-0.4978,-0.5001,-0.5011,-0.5038,-0.5068,-0.5068,-0.5102,-0.5122,-0.5158,-0.5172,-0.5198,-0.5189,-0.5201,-0.5204,-0.5207,-0.521,-0.5133,-0.5203,-0.5203,-0.5203,-0.5203,-0.5202,0,-0.4942,-0.4954,-0.498,-0.5009,-0.5032,-0.5024,-0.5046,-0.5065,-0.5095,-0.5114,-0.5138,-0.5173,-0.5201,-0.5215,-0.5243,-0.5261,-0.526,-0.5269,-0.5268,-0.5271,-0.5216,-0.5206,-0.527,-0.527,-0.527,-0.527,-0.5269,-0.5269,-0.4982,-0.5022,-0.5026,-0.5074,-0.5085,-0.5119,-0.5132,-0.5149,-0.5164,-0.5204,-0.5227,-0.5235,-0.5252,-0.5281,-0.5306,-0.5309,-0.532,-0.5331,-0.5333,-0.5282,-0.5275,-0.5268,-0.526,-0.5333,-0.5333,-0.5385,-0.5386,-0.5386]},{"header":{"parameterUnit":"m.s-1","parameterCategory":1,"la1":30.2991,"la2":30.254,"lo1":-89.0895,"lo2":-89.0444,"dy":0.0017,"dx":0.0017,"nx":28,"ny":28,"refTime":"2024-03-17T09:00:00:Z","depth":0,"parameterNumber":3,"parameterNumberName":"V-component_of_WINDS"},"data":[0,0,0,0,0,0,0,0,0,0,0,0,0,0,0,0,0,0,0,0,0,0,0,0,0,0,0,0,0,0,0,0,0,0,0,0,0,0,0,0,0,0,0,0,0,0,0,0,0,0,0,0,0,0,0,0,0,0,-7.864,-7.8641,0,-7.8758,-7.8759,-7.8761,-7.8681,-7.8678,-7.8674,-7.8671,-7.8786,-7.8792,-7.8798,0,0,0,0,0,0,0,0,0,0,0,0,0,-7.8339,-7.8345,-7.864,-7.8641,-7.8643,-7.8758,-7.876,-7.8761,-7.8682,-7.8678,-7.8673,-7.8669,-7.8784,-7.8791,-7.8799,0,0,0,0,0,0,0,0,0,0,0,0,0,-7.8464,-7.8347,-7.8639,-7.8617,-7.8616,-7.8758,-7.876,-7.8762,-7.8683,-7.8678,-7.8672,-7.8667,-7.8781,-7.8791,-7.88,-7.8968,0,0,-7.883,-7.8834,0,0,0,0,0,0,0,0,-7.8457,-7.8476,-7.8619,-7.8619,-7.8618,-7.87,-7.8696,-7.883,-7.8684,-7.8658,-7.8671,-7.8665,-7.8761,-7.8772,-7.8806,-7.8973,-7.8978,-7.883,-7.8836,-7.884,-7.8843,0,0,0,0,0,0,0,-7.8449,-7.847,-7.8686,-7.8621,-7.8621,-7.8599,-7.8611,-7.8721,-7.8738,-7.8659,-7.8654,-7.8669,-7.876,-7.8797,-7.8808,-7.898,-7.883,-7.8839,-7.8845,-7.8848,-7.9289,-7.9295,0,0,0,0,0,0,-7.8443,-7.8463,-7.8682,-7.869,-7.8523,-7.8609,-7.8622,-7.8679,-7.8737,-7.874,-7.8674,-7.8665,-7.8783,-7.8797,-7.8812,-7.9012,-7.884,-7.8849,-7.8855,-7.9284,-7.9291,-7.9297,0,0,0,0,0,0,-7.8437,-7.8463,-7.8678,-7.8575,-7.8601,-7.862,-7.8684,-7.8684,-7.8721,-7.8748,-7.875,-7.8709,-7.8779,-7.8798,-7.893,-7.9015,-7.8854,-7.8862,-7.9277,-7.9286,-7.9294,-7.9413,0,0,0,0,0,0,-7.8428,-7.8462,-7.8527,-7.8577,-7.8607,-7.8796,-7.8689,-7.869,-7.8739,-7.8729,-7.8781,-7.8785,-7.8777,-7.8916,-7.8939,-7.9025,-7.887,-7.9269,-7.9281,-7.9291,-7.9402,-7.9425,-7.9445,0,0,0,0,0,-7.8418,-7.8554,-7.8531,-7.8558,-7.8689,-7.8801,-7.8818,-7.8808,-7.8746,-7.8811,-7.8828,-7.8783,-7.9002,-7.893,-7.8956,-7.9046,-7.9264,-7.9277,-7.929,-7.9392,-7.9421,-7.9445,0,0,0,0,0,0,-7.8511,-7.8561,-7.8535,-7.8692,-7.8744,-7.8788,-7.8869,-7.8838,-7.8906,-7.8894,-7.8876,-7.8888,-7.9026,-7.9049,-7.8968,-7.921,-7.9122,-7.9142,-7.9191,-7.9218,-7.924,-7.9231,-7.8878,0,0,0,0,0,-7.855,-7.8639,-7.8677,-7.8812,-7.8839,-7.885,-7.8898,-7.8887,-7.8938,-7.8959,-7.8985,-7.9035,-7.9115,-7.9168,-7.9242,-7.9405,-7.9414,-7.9479,-7.95,-7.9518,-7.9535,-7.9622,-7.9651,-7.9341,-7.9341,-7.9341,0,0,-7.8632,-7.867,-7.8726,-7.8832,-7.887,-7.8961,-7.8869,-7.8968,-7.9035,-7.8973,-7.91,-7.9121,-7.9175,-7.9323,-7.9389,-7.9346,-7.9623,-7.9535,-7.9549,-7.9556,-7.9638,-7.9668,-7.9694,-7.935,-7.9349,-7.9347,0,0,-7.8826,-7.8864,-7.8981,-7.9022,-7.9082,-7.9088,-7.9117,-7.9166,-7.9179,-7.9306,-7.9261,-7.9339,-7.9477,-7.9517,-7.9556,-7.9767,-7.9727,-7.9791,-7.9904,-7.9989,-8.0013,-8.0035,-8.011,-8.0137,-7.9808,-7.9808,-7.9808,0,-7.8919,-7.9056,-7.9045,-7.9149,-7.9196,-7.9146,-7.9263,-7.9302,-7.9383,-7.9415,-7.9366,-7.9539,-7.9571,-7.9728,-7.978,-7.9813,-7.9843,-7.9785,-8.0011,-8.0033,-8.0053,-8.0124,-8.0152,-7.9815,-7.9814,-7.9814,-7.9813,0,-7.9167,-7.9263,-7.935,-7.9432,-7.9488,-7.9598,-7.9601,-7.966,-7.9642,-7.9654,-7.9783,-7.9821,-7.9903,-7.9939,-7.9922,-8.0093,-8.0064,-8.0014,-7.9925,-8.009,-8.0156,-8.0183,-7.9826,-7.9823,-7.9821,-7.9819,0,0,-7.9424,-7.9499,-7.9531,-7.9567,-7.963,-7.9702,-7.9809,-7.9891,-7.9942,-7.9998,-8.0087,-8.0205,-8.0159,-8.0203,-8.019,-8.0265,-8.0429,-8.0204,-8.0205,-8.0245,-8.0619,-8.0657,-8.0689,-8.0403,-8.0408,-8.0412,-8.0614,0,-7.9622,-7.9812,-7.9804,-7.998,-8.0068,-8.0022,-8.0114,-8.0162,-8.0175,-8.0249,-8.0262,-8.0347,-8.0279,-8.0306,-8.0377,-8.0394,-8.0503,-8.0379,-8.0484,-8.0488,-8.0472,-8.0723,-8.0764,-8.0953,-8.064,-8.0644,-8.0648,0,-7.9879,-7.9947,-8.0133,-8.0183,-8.0219,-8.0303,-8.0378,-8.045,-8.0502,-8.0506,-8.0556,-8.0531,-8.0638,-8.0546,-8.0692,-8.0607,-8.0649,-8.0664,-8.067,-8.068,-8.0578,-8.074,-8.1013,-8.1041,-8.0688,-8.0685,-8.0682,0,-8.0048,-8.0186,-8.0315,-8.0347,-8.0409,-8.0469,-8.0497,-8.0544,-8.0594,-8.0658,-8.069,-8.0765,-8.0806,-8.0864,-8.0859,-8.0793,-8.1006,-8.0915,-8.1012,-8.1012,-8.1059,-8.1056,-8.1343,-8.1086,-8.1086,-8.1085,-8.1084,0,-8.027,-8.0386,-8.0392,-8.0471,-8.0598,-8.0588,-8.0713,-8.0734,-8.0777,-8.0858,-8.0821,-8.0897,-8.0887,-8.0963,-8.0959,-8.108,-8.1098,-8.1103,-8.1101,-8.1107,-8.1107,-8.1135,-8.1121,-8.1093,-8.1091,-8.1089,-8.1088,0,-8.0481,-8.049,-8.0627,-8.0675,-8.0689,-8.0781,-8.082,-8.0894,-8.0904,-8.1007,-8.1031,-8.1046,-8.1133,-8.1135,-8.1234,-8.1232,-8.1379,-8.1362,-8.1363,-8.136,-8.1456,-8.1447,-8.1771,-8.1813,-8.1529,-8.1532,-8.1534,0,-8.0622,-8.071,-8.0768,-8.0821,-8.0853,-8.0938,-8.099,-8.0982,-8.1037,-8.1103,-8.1169,-8.1253,-8.1321,-8.1463,-8.1481,-8.1557,-8.1541,-8.1649,-8.1552,-8.1555,-8.1543,-8.1538,-8.1546,-8.1668,-8.1671,-8.1674,-8.1676,0,-8.0873,-8.0873,-8.095,-8.1029,-8.1091,-8.1152,-8.1208,-8.1253,-8.1252,-8.1314,-8.1405,-8.1458,-8.156,-8.1644,-8.1718,-8.1743,-8.171,-8.1707,-8.1733,-8.174,-8.1737,-8.174,-8.1415,-8.1699,-8.1697,-8.1695,-8.1694,-8.1693,-8.1053,-8.1129,-8.1182,-8.1268,-8.131,-8.1364,-8.1437,-8.1456,-8.1532,-8.1617,-8.1607,-8.1708,-8.1756,-8.1852,-8.1884,-8.1961,-8.1923,-8.1962,-8.1971,-8.1981,-8.1992,-8.1725,-8.1974,-8.1974,-8.1973,-8.1972,-8.1972,0,-8.1301,-8.1333,-8.1413,-8.1495,-8.1562,-8.1527,-8.1587,-8.1645,-8.1735,-8.1785,-8.1852,-8.1956,-8.2037,-8.2062,-8.2141,-8.2197,-8.2184,-8.2218,-8.2214,-8.222,-8.2021,-8.1991,-8.2228,-8.2228,-8.2228,-8.2228,-8.2228,-8.2228,-8.1439,-8.1566,-8.1573,-8.172,-8.175,-8.185,-8.1888,-8.1936,-8.1976,-8.2094,-8.2162,-8.2179,-8.2218,-8.2299,-8.2371,-8.2376,-8.2407,-8.2448,-8.2447,-8.226,-8.2234,-8.221,-8.2181,-8.2455,-8.2455,-8.2639,-8.2641,-8.2642]}]]